FW1198 Weather Reports


time (UTC)temp
C
wind
direction
speed
KPH
gust
KPH
rain 1hr
cm
rain 24hr
cm
rain mn
cm
humidity
%
barometer
mb
20260507033045 16 340 6.4 17.7 0.00 0.00 0.00 80 1018.7
20260507031543 16 19 8.0 14.5 0.00 0.00 0.00 79 1018.5
20260507030044 16 5 4.8 12.9 0.00 0.00 0.00 77 1018.2
20260507024548 17 360 8.0 17.7 0.00 0.00 0.00 75 1018.1
20260507023048 17 28 11.3 20.9 0.00 0.00 0.00 74 1017.8
20260507021543 18 352 8.0 19.3 0.00 0.00 0.00 71 1017.6
20260507020048 19 360 8.0 20.9 0.00 0.00 0.00 68 1017.6
20260507014553 20 360 14.5 24.1 0.00 0.00 0.00 65 1017.5
20260507013056 20 344 11.3 20.9 0.00 0.00 0.00 64 1017.5
20260507011548 20 348 12.9 22.5 0.00 0.00 0.00 62 1017.4
20260507010054 21 330 11.3 25.7 0.00 0.00 0.00 61 1017.4
20260507004551 21 22 12.9 22.5 0.00 0.00 0.00 61 1017.5
20260507003047 21 340 12.9 20.9 0.00 0.00 0.00 60 1017.4
20260507001549 21 19 12.9 24.1 0.00 0.00 0.00 60 1017.3
20260507000042 22 298 9.7 20.9 0.00 0.00 0.00 57 1017.3
20260506234549 22 348 9.7 20.9 0.00 0.00 0.00 57 1017.2
20260506233059 22 328 8.0 20.9 0.00 0.00 0.00 57 1017.2
20260506231544 22 351 11.3 20.9 0.00 0.00 0.00 56 1017.4
20260506230044 22 352 11.3 24.1 0.00 0.00 0.00 57 1017.5
20260506224540 22 325 12.9 25.7 0.00 0.00 0.00 56 1017.5
20260506223042 22 5 11.3 19.3 0.00 0.00 0.00 55 1017.6
20260506221555 22 15 11.3 19.3 0.00 0.00 0.00 56 1017.7
20260506220049 22 223 8.0 17.7 0.00 0.00 0.00 55 1017.9
20260506214543 22 275 4.8 14.5 0.00 0.00 0.00 56 1018.1
20260506213049 22 180 1.6 17.7 0.00 0.00 0.00 56 1018.2
20260506211551 21 282 8.0 17.7 0.00 0.00 0.00 59 1018.4
20260506210049 21 360 9.7 19.3 0.00 0.00 0.00 59 1018.6
20260506204554 20 26 4.8 17.7 0.00 0.00 0.00 60 1018.8
20260506203045 21 0 4.8 14.5 0.00 0.00 0.00 59 1019.0
20260506201544 20 259 4.8 20.9 0.00 0.00 0.00 61 1019.2
20260506200048 20 5 4.8 17.7 0.00 0.00 0.00 62 1019.4
20260506194554 20 345 4.8 14.5 0.00 0.00 0.00 62 1019.4
20260506193048 19 303 4.8 12.9 0.00 0.00 0.00 63 1019.5
20260506191543 18 57 6.4 14.5 0.00 0.00 0.00 65 1019.7
20260506190052 18 345 1.6 14.5 0.00 0.00 0.00 65 1019.8
20260506184549 18 325 4.8 12.9 0.00 0.00 0.00 67 1019.9
20260506183043 17 336 3.2 12.9 0.00 0.00 0.00 69 1020.1
20260506181557 17 360 4.8 12.9 0.00 0.00 0.00 70 1020.1
20260506180055 16 348 6.4 16.1 0.00 0.00 0.00 71 1020.1
20260506174547 16 220 4.8 16.1 0.00 0.00 0.00 71 1020.3
20260506173103 16 313 4.8 12.9 0.00 0.00 0.00 73 1020.3
20260506171552 16 294 6.4 12.9 0.00 0.00 0.00 74 1020.3
20260506170100 15 281 4.8 12.9 0.00 0.00 0.00 76 1020.3
20260506164554 15 298 3.2 11.3 0.00 0.00 0.00 78 1020.3
20260506163044 15 273 6.4 12.9 0.00 0.00 0.00 77 1020.3
20260506161548 15 283 3.2 9.7 0.00 0.00 0.00 78 1020.4
20260506160104 15 334 4.8 12.9 0.00 0.00 0.00 78 1020.3
20260506154552 14 346 4.8 14.5 0.00 0.00 0.00 79 1020.3
20260506153050 14 305 6.4 12.9 0.00 0.00 0.00 80 1020.3
20260506151550 13 305 3.2 12.9 0.00 0.00 0.00 81 1020.4
20260506150044 13 286 3.2 9.7 0.00 0.00 0.00 81 1020.3
20260506144546 13 352 3.2 8.0 0.00 0.00 0.00 82 1020.4
20260506143044 13 302 1.6 6.4 0.00 0.00 0.00 82 1020.3
20260506141607 13 281 3.2 8.0 0.00 0.00 0.00 81 1020.3
20260506140053 13 329 3.2 8.0 0.00 0.00 0.00 82 1020.1
20260506134543 13 0 0.0 6.4 0.00 0.00 0.00 82 1019.9
20260506133047 13 292 1.6 6.4 0.00 0.00 0.00 82 1019.6
20260506131554 13 293 1.6 6.4 0.00 0.00 0.00 82 1019.4
20260506130042 13 306 3.2 4.8 0.00 0.00 0.00 81 1019.3
20260506124544 13 351 1.6 4.8 0.00 0.00 0.00 81 1019.2
20260506123049 13 352 0.0 6.4 0.00 0.00 0.00 81 1019.2
20260506121555 13 336 3.2 8.0 0.00 0.00 0.00 81 1019.2
20260506120115 13 352 3.2 6.4 0.00 0.00 0.00 81 1019.1
20260506114549 13 5 1.6 11.3 0.00 0.00 0.00 81 1018.9
20260506113045 13 325 1.6 4.8 0.00 0.00 0.00 81 1018.9
20260506111546 13 0 0.0 3.2 0.00 0.00 0.00 81 1018.7
20260506110051 13 0 0.0 4.8 0.00 0.00 0.00 81 1018.7
20260506104550 13 259 0.0 4.8 0.00 0.00 0.00 81 1018.7
20260506103052 13 292 0.0 4.8 0.00 0.00 0.00 81 1018.6
20260506101549 13 266 1.6 4.8 0.00 0.00 0.00 81 1018.7
20260506100054 13 291 1.6 4.8 0.00 0.00 0.00 81 1018.7
20260506094549 13 275 1.6 4.8 0.00 0.00 0.00 81 1018.7
20260506093054 13 304 1.6 6.4 0.00 0.00 0.00 81 1018.7
20260506091551 13 325 1.6 6.4 0.00 0.00 0.00 81 1018.9
20260506090046 13 271 3.2 8.0 0.00 0.00 0.00 81 1018.7
20260506084549 13 299 1.6 6.4 0.00 0.00 0.00 81 1018.7
20260506083045 13 348 1.6 4.8 0.00 0.00 0.00 80 1018.7
20260506081551 13 300 3.2 8.0 0.00 0.00 0.00 80 1018.7
20260506073055 13 346 3.2 9.7 0.00 0.00 0.00 80 1018.3
20260506071548 14 13 3.2 12.9 0.00 0.00 0.00 79 1018.2
20260506070109 14 9 4.8 12.9 0.00 0.00 0.00 79 1018.2
20260506061546 14 360 3.2 11.3 0.00 0.00 0.00 78 1017.9
20260506044553 15 300 3.2 8.0 0.00 0.00 0.00 72 1017.3
20260506043049 15 312 3.2 6.4 0.00 0.00 0.00 72 1017.2
20260506041554 15 311 0.0 6.4 0.00 0.00 0.00 73 1017.0
20260506040046 15 341 1.6 6.4 0.00 0.00 0.00 73 1016.8
20260506034542 15 292 1.6 6.4 0.00 0.00 0.00 73 1016.7